Theta_e
330 325 329 321 307 306 303 308 315 314 314 317 318 315 313 325 323 323 350 355 357 362 364 363 368 368 366 364 363 362 362 362 362 361 361 361 362 364 363 364 364 364 364 363 361 359 358 357 355
323 323 321 315 303 300 302 310 309 314 315 317 317 316 315 323 332 339 343 351 358 364 363 363 367 367 366 364 362 362 362 362 362 361 361 362 362 363 364 364 364 364 364 362 360 358 357 357 355
323 323 314 310 305 301 302 310 311 313 315 314 314 317 316 326 332 337 347 352 360 367 364 366 367 367 365 364 362 362 362 362 362 362 362 362 363 363 364 364 364 364 362 360 359 357 358 356 355
317 317 314 304 303 307 308 311 312 312 313 314 313 311 321 333 330 339 347 353 358 365 365 364 366 366 365 364 363 362 362 363 362 362 362 362 363 363 364 364 363 363 362 360 357 357 357 356 355
316 313 306 304 304 307 310 312 313 311 312 312 313 310 315 330 333 337 345 354 360 364 365 363 365 366 365 365 364 362 362 362 362 362 362 362 362 363 364 364 363 362 361 359 357 357 356 356 354
309 311 301 300 304 309 312 314 311 310 312 313 312 311 314 329 331 335 341 353 361 365 366 364 365 365 364 364 363 362 361 361 362 361 361 362 362 363 363 363 363 361 360 358 357 356 355 354 353
305 305 302 303 304 306 310 315 311 311 311 311 314 308 314 321 327 332 339 353 361 364 365 364 362 363 364 363 362 362 361 361 361 360 361 361 362 362 362 362 362 361 359 357 356 354 353 352 352
308 306 301 303 302 304 311 312 313 310 309 314 314 307 309 318 321 326 329 347 357 360 363 362 363 359 360 360 361 362 361 360 360 361 361 361 361 362 362 360 361 360 359 356 355 353 352 351 351
310 300 298 301 302 303 309 306 311 313 309 311 312 312 314 318 320 318 320 325 353 358 360 361 358 356 356 357 360 361 362 361 361 361 361 359 355 357 359 357 359 358 357 355 354 352 351 350 350
306 301 302 306 306 304 306 306 307 307 307 308 310 314 316 316 317 318 320 320 328 354 358 358 357 355 353 353 360 359 359 359 358 357 359 353 350 352 353 356 359 358 356 354 353 352 351 348 338
308 301 305 306 308 307 305 305 308 305 303 307 307 310 314 315 319 315 315 318 320 348 358 358 358 356 352 350 358 357 357 358 358 357 356 353 350 351 351 356 353 353 353 347 348 347 344 339 336
303 307 307 307 308 307 305 308 306 307 307 311 311 312 312 313 314 317 318 316 320 338 355 358 359 354 354 352 354 352 353 355 356 356 357 352 353 349 349 353 351 349 347 344 343 341 341 340 340
305 307 308 309 308 307 308 306 306 307 310 312 313 313 312 312 313 316 320 326 322 326 346 355 358 358 351 353 352 349 350 350 352 354 358 354 352 348 350 353 351 348 347 344 345 343 342 341 341
307 307 306 307 308 309 306 307 307 308 311 311 311 311 312 311 312 315 317 319 326 330 331 343 357 358 359 354 352 349 351 349 349 350 355 354 351 352 352 354 350 347 347 345 347 345 346 342 340
308 303 306 307 308 307 309 303 304 309 311 309 310 311 312 314 313 313 316 320 323 332 333 336 357 359 355 359 355 351 352 350 349 350 355 351 355 357 354 350 351 353 351 351 348 349 344 342 342
304 304 299 305 304 305 304 297 304 308 308 307 309 310 312 313 314 316 318 320 326 331 336 339 331 359 356 351 357 355 352 352 350 351 354 350 355 358 354 349 352 354 352 348 345 343 341 341 343
302 295 296 298 304 303 302 298 304 307 307 307 309 309 310 312 315 318 319 319 325 329 335 338 340 342 357 355 350 355 355 354 352 354 353 351 352 353 350 352 352 358 349 349 345 344 344 344 347
294 294 296 296 301 302 300 299 303 306 306 307 308 310 310 311 313 317 320 320 323 329 338 341 341 343 353 359 355 350 354 353 356 352 351 351 350 350 351 351 351 352 349 348 346 346 346 348 346
298 297 295 299 302 300 299 299 301 305 305 305 306 308 309 311 314 317 320 320 322 326 336 335 341 343 344 354 354 348 345 349 352 351 356 351 350 349 353 350 354 348 347 349 350 351 350 348 350
299 297 296 299 301 299 298 298 302 304 305 306 307 308 309 311 313 315 318 321 321 329 332 340 339 345 347 354 355 354 349 349 350 352 352 352 350 351 352 350 350 348 347 354 352 351 346 350 351
298 296 295 295 298 299 297 295 299 302 305 307 309 311 311 312 312 314 317 319 321 325 334 336 338 342 344 351 355 355 356 350 347 346 349 352 352 352 353 351 348 351 350 350 354 354 350 342 348
295 300 298 296 294 290 298 287 297 301 302 305 307 308 311 311 313 315 316 318 320 322 326 334 338 339 343 344 351 351 348 345 344 347 345 351 352 353 353 350 355 354 350 352 351 354 352 346 340
297 301 298 298 295 294 294 291 295 300 299 303 306 308 310 311 313 313 314 316 320 321 322 332 334 339 339 343 347 351 350 348 350 349 344 348 352 354 351 350 351 356 351 352 351 351 351 350 343
302 299 298 297 294 288 292 292 291 295 298 303 306 309 310 311 312 314 317 317 318 320 321 322 333 338 342 349 346 352 350 349 347 346 344 344 348 350 350 349 349 354 353 353 351 353 349 346 347
299 295 288 285 286 285 294 289 292 300 302 304 305 306 308 310 312 313 314 315 318 319 322 322 333 339 345 347 348 351 352 352 349 346 344 343 345 346 347 349 349 353 353 353 353 351 347 346 342
296 295 288 280 282 286 293 287 294 303 304 306 307 305 310 310 312 314 315 317 317 321 320 326 332 337 344 345 346 348 351 350 350 349 346 345 345 347 348 348 351 353 352 351 351 348 342 338 335
296 293 295 285 291 287 290 294 298 302 302 304 305 306 307 311 313 314 315 320 321 322 324 328 334 336 341 345 345 346 349 349 347 347 347 344 346 345 346 347 349 350 350 350 347 339 335 333 330
298 300 290 292 282 279 286 288 289 296 298 303 303 304 306 310 311 312 314 320 321 324 326 329 330 331 340 342 344 345 346 348 349 350 347 347 347 341 341 344 345 347 347 342 337 334 332 329 325
295 293 295 294 291 283 283 287 298 299 301 302 304 305 307 309 309 310 314 315 320 321 321 326 329 329 330 335 344 344 344 345 347 347 348 349 346 339 337 333 342 340 337 335 332 329 325 323 321
297 294 295 288 286 290 288 287 300 301 303 304 304 304 306 307 309 311 312 315 316 319 320 323 328 328 331 331 334 336 342 344 345 346 348 350 346 340 335 331 336 334 334 331 325 322 322 319 317
Wind_Speed
17 17 10 11 7 8 15 18 20 9 5 15 10 9 9 18 12 7 13 12 9 19 16 18 15 16 17 17 15 17 18 16 15 15 16 15 14 14 13 14 13 13 13 12 12 10 10 10 9
12 18 7 7 9 11 14 20 19 8 16 6 4 6 5 16 11 15 13 13 9 18 14 15 14 16 15 17 16 16 17 16 16 15 16 16 15 13 14 14 14 13 12 11 11 10 10 10 8
14 17 8 7 12 14 16 13 12 16 12 8 5 4 6 9 12 7 10 11 11 17 15 15 13 14 16 16 16 16 18 16 16 16 14 15 15 14 13 14 14 14 14 12 11 11 9 9 8
8 8 7 9 17 18 20 9 6 9 2 5 6 6 7 8 5 6 9 9 7 18 18 19 15 13 15 17 16 16 16 17 17 15 15 14 13 12 12 12 13 13 13 12 11 10 8 8 6
8 7 11 16 17 19 20 15 8 5 10 4 6 6 4 12 6 6 8 8 10 14 16 16 18 14 14 16 16 16 17 17 16 16 15 15 14 13 12 12 12 12 12 11 11 10 8 7 6
7 9 12 14 18 20 19 7 5 3 9 10 4 7 4 12 10 6 6 8 6 12 13 12 17 16 13 15 16 16 17 17 17 16 16 15 13 12 10 11 11 11 11 10 10 8 7 5 4
11 10 16 19 18 20 12 7 4 1 7 12 15 9 9 13 10 3 0 12 3 12 11 11 13 13 14 13 15 16 16 16 17 16 15 15 14 12 11 10 10 10 10 9 7 7 6 6 5
6 10 17 16 17 18 10 9 5 2 8 11 12 5 8 11 6 6 10 11 10 7 11 11 11 14 12 11 16 16 17 17 16 16 16 16 14 12 10 9 9 9 9 9 8 7 6 6 5
7 7 11 12 14 14 20 20 8 7 8 12 13 14 18 21 10 1 7 12 14 10 8 11 14 14 13 14 12 15 16 17 16 15 15 13 9 11 13 12 13 9 8 7 7 7 6 6 6
5 10 16 13 13 15 18 17 17 16 16 15 16 18 18 18 13 10 6 9 7 14 13 9 9 14 14 12 13 12 12 10 10 11 12 9 10 10 12 12 14 11 9 8 7 7 6 6 5
8 11 18 14 11 14 17 18 16 18 18 18 18 18 17 17 8 10 13 13 14 14 10 9 8 10 16 12 10 7 8 7 8 12 11 9 8 9 7 6 6 6 8 5 6 5 5 7 7
9 12 13 10 12 14 16 18 19 19 20 19 19 19 20 19 13 11 12 11 11 9 14 12 6 8 9 9 11 9 9 9 8 10 13 8 5 8 7 7 9 7 6 7 7 6 7 8 9
15 16 11 14 17 16 18 20 20 19 20 18 18 18 19 18 18 15 12 6 11 7 7 15 7 4 10 6 11 11 10 10 11 11 13 10 8 9 7 8 9 9 9 8 7 7 8 7 5
17 16 17 20 22 21 20 17 17 19 20 22 21 19 18 19 20 17 14 13 9 6 7 4 13 8 11 6 10 7 10 11 10 11 12 13 8 8 7 5 7 9 8 9 6 5 4 1 4
19 21 22 22 22 16 9 18 21 23 22 17 19 15 16 20 18 18 14 12 12 8 9 7 9 11 12 11 7 10 11 11 10 10 13 14 9 9 7 5 5 4 5 5 5 4 3 4 5
23 23 19 16 25 20 23 23 25 23 23 24 23 19 18 17 19 16 15 14 9 7 10 9 9 13 12 9 8 5 8 9 10 10 11 15 10 8 7 6 5 4 4 3 3 3 4 5 5
18 18 25 25 21 23 21 26 23 24 23 22 20 20 20 19 17 16 15 15 10 9 8 11 9 9 14 14 8 10 6 8 9 8 11 14 11 10 8 5 5 5 4 4 3 3 4 4 4
21 22 22 24 24 24 25 26 25 23 24 23 21 20 20 21 19 17 15 14 13 9 8 11 10 9 7 10 10 9 7 5 5 8 11 15 9 10 8 6 7 5 4 4 4 4 5 4 4
19 21 24 25 24 23 24 24 25 25 25 25 23 22 22 21 19 17 16 17 15 13 8 11 15 11 8 9 8 11 11 5 7 8 11 16 12 11 11 7 7 6 5 5 6 4 3 3 1
21 24 24 24 23 23 25 28 27 27 27 22 21 22 22 23 20 18 18 15 16 10 10 10 10 10 9 8 9 9 11 7 7 4 7 16 15 12 12 9 8 7 6 6 6 5 3 3 3
22 21 21 26 25 26 26 29 24 28 27 16 16 20 18 19 20 20 18 16 14 11 8 10 12 11 9 9 8 7 8 10 10 5 6 13 15 11 12 11 7 9 6 6 6 5 4 4 3
21 19 22 23 24 21 22 24 23 19 21 11 17 17 22 17 15 14 15 15 15 13 12 11 12 11 10 12 10 12 8 11 11 10 5 12 14 11 11 12 6 10 8 5 7 6 4 3 3
17 20 24 29 27 26 26 15 16 22 16 15 12 13 9 12 14 13 17 17 16 15 13 10 14 14 14 14 11 11 10 9 10 7 8 12 10 10 13 12 8 9 7 5 8 6 5 2 2
20 22 25 22 19 15 25 4 8 10 9 28 13 15 8 4 11 14 13 17 15 16 16 14 16 14 15 12 15 12 13 12 9 12 10 9 7 9 12 13 11 9 8 7 8 6 7 4 4
24 23 11 11 8 14 15 5 11 13 24 29 24 11 14 14 10 11 11 11 12 13 14 15 15 14 14 12 12 12 12 13 13 13 11 11 9 10 14 13 13 10 9 8 8 6 7 6 5
24 17 10 11 12 20 18 11 7 10 12 22 25 28 16 8 9 13 14 13 16 6 15 12 14 14 14 14 13 11 11 7 8 10 10 8 9 12 13 11 12 10 10 9 9 8 7 8 7
19 12 5 10 19 14 15 19 8 11 4 10 15 25 26 20 18 4 8 10 12 14 15 9 4 15 13 14 11 12 9 9 9 11 10 9 10 4 13 16 15 13 11 13 11 9 10 10 9
18 6 5 7 6 7 13 19 8 7 17 9 5 9 17 15 16 24 15 9 8 8 9 7 8 9 5 12 10 10 11 8 8 7 10 10 9 4 10 8 12 12 14 13 14 12 9 11 9
15 12 11 5 6 6 9 9 19 21 14 12 18 15 13 4 8 13 6 7 6 5 6 9 7 4 5 5 8 11 9 8 7 7 8 9 5 10 9 4 8 13 15 15 14 13 13 14 12
8 13 9 3 12 13 14 18 18 17 23 18 15 16 21 22 14 7 13 3 7 5 4 5 6 9 4 5 7 8 10 12 9 8 7 4 7 11 16 21 13 11 15 14 16 14 13 15 14
Wind_Direction
291 268 237 249 243 230 256 253 256 281 65 52 23 2 7 41 27 91 65 20 13 132 132 125 126 136 140 140 142 137 137 140 139 137 134 135 134 124 121 117 114 115 117 116 116 115 110 107 105
293 293 241 276 244 251 254 238 246 68 66 46 38 331 266 83 31 64 36 349 54 123 136 130 132 137 142 142 143 142 140 143 142 143 143 143 141 136 131 127 124 121 123 121 120 122 122 122 122
262 259 274 232 236 250 268 308 24 55 69 30 15 52 7 69 49 36 42 338 103 126 141 125 134 140 143 144 146 147 145 144 146 146 147 146 146 142 137 133 131 133 136 138 135 134 137 138 142
266 224 242 257 260 260 241 286 21 359 5 112 345 305 103 80 79 61 46 345 309 134 132 138 134 141 147 147 149 149 150 145 148 149 150 150 149 143 140 138 138 140 143 144 143 142 147 152 155
239 271 249 257 257 258 271 279 85 326 317 341 69 335 357 112 107 55 65 14 25 116 123 139 134 142 150 149 150 153 155 148 150 154 156 156 153 151 149 146 144 143 144 147 149 150 157 166 169
253 241 263 263 261 251 252 126 126 251 302 303 350 268 276 133 98 43 46 54 34 115 134 142 136 140 149 151 152 158 158 151 153 158 159 156 155 153 150 145 145 146 147 151 151 157 163 171 190
255 272 262 270 282 294 309 86 86 89 313 294 359 341 314 52 59 56 303 113 71 129 133 147 149 148 150 156 157 158 155 154 156 159 158 157 157 157 151 149 147 147 145 148 153 160 171 183 212
317 288 276 275 276 279 284 80 87 340 291 310 336 289 257 113 93 343 308 128 136 143 149 158 161 165 161 169 163 156 154 156 157 158 157 157 155 155 152 145 151 152 153 156 162 174 186 205 219
283 264 258 278 343 342 337 356 16 6 315 296 283 274 286 297 317 192 289 294 139 155 166 174 173 172 172 167 169 153 157 156 157 158 159 155 169 171 166 186 151 159 157 159 176 193 197 220 238
279 289 283 7 346 329 326 327 328 318 300 287 284 277 269 265 269 258 221 275 250 164 166 195 199 172 180 170 155 169 169 171 173 171 169 181 183 178 176 164 154 160 164 174 190 209 215 231 231
323 306 311 334 335 326 314 307 306 299 283 281 283 287 288 293 287 299 280 208 250 170 171 182 232 177 187 178 155 177 165 178 188 183 176 201 192 176 184 138 154 159 175 187 196 203 225 228 231
285 292 303 291 304 292 286 289 287 284 284 292 289 286 283 285 284 282 278 277 275 166 171 191 222 182 218 176 159 179 173 181 185 189 180 204 208 170 182 161 168 176 172 208 187 200 209 230 243
292 301 284 299 299 291 278 277 280 281 288 281 282 282 278 271 267 265 268 243 283 307 161 183 194 233 212 176 166 179 183 184 184 182 181 199 215 168 185 175 177 182 180 204 189 218 202 218 232
294 308 300 288 274 261 256 264 281 282 279 279 277 267 262 269 265 254 241 249 231 213 263 250 187 181 234 202 173 196 185 180 186 182 177 201 209 164 178 211 176 186 188 202 189 198 160 179 236
313 289 274 265 259 268 257 254 255 254 252 279 278 260 262 262 267 258 254 248 239 193 201 224 191 197 211 219 223 196 180 179 187 180 171 195 199 161 171 212 190 210 189 156 164 191 141 169 249
272 265 270 297 334 328 325 299 296 301 296 290 277 272 270 239 256 257 252 250 251 237 179 193 217 191 211 221 226 237 187 186 185 177 170 185 187 169 181 189 179 220 142 145 155 215 160 217 225
274 324 322 312 322 318 308 295 294 295 289 282 276 274 269 254 243 254 248 250 233 221 205 190 200 210 199 217 222 242 255 202 180 179 167 181 186 191 183 191 164 204 151 158 193 210 185 206 252
325 310 305 300 308 302 292 289 294 300 298 294 289 282 274 261 243 236 242 244 245 239 192 174 190 214 214 203 208 229 243 229 179 187 170 175 186 196 178 213 168 162 153 180 190 189 219 213 197
308 297 292 290 296 307 302 303 301 301 286 277 270 270 268 270 256 249 234 236 244 216 225 188 178 195 199 195 210 208 236 227 231 192 171 171 179 194 180 205 149 161 168 199 188 192 224 236 211
286 287 292 305 317 316 308 296 288 278 272 275 280 265 256 248 258 246 238 232 230 212 207 175 178 184 195 199 202 206 207 213 231 230 170 165 178 186 177 197 162 177 182 208 170 175 180 231 115
299 301 319 314 312 297 294 285 295 298 293 301 313 304 255 266 237 238 231 221 221 211 203 177 176 183 202 225 197 211 224 212 225 247 173 171 177 186 176 196 175 170 196 189 149 170 199 207 140
299 328 307 300 300 293 297 292 282 318 330 278 271 284 304 251 258 243 240 219 208 221 206 179 172 184 194 215 196 196 202 202 210 222 231 170 174 186 176 193 189 168 193 193 161 165 172 234 198
312 304 294 299 296 297 289 294 336 332 328 314 285 251 276 318 312 269 215 229 208 205 219 190 179 182 201 201 224 189 199 217 196 207 194 191 180 185 186 184 207 173 186 170 154 161 168 199 153
279 291 305 309 303 293 296 31 292 292 213 254 248 247 294 348 306 285 276 209 215 203 206 219 180 188 190 200 206 192 196 202 212 210 206 194 192 188 187 184 201 171 175 160 155 160 161 172 113
325 303 310 293 306 284 326 200 234 356 346 348 345 345 329 314 301 346 325 225 205 207 198 201 180 183 182 191 197 198 203 203 204 214 198 187 199 196 189 188 194 168 171 141 134 144 133 116 92
295 299 301 297 301 299 306 272 34 7 337 334 347 345 344 298 14 20 338 339 15 303 188 204 176 181 182 187 181 197 205 201 215 214 209 200 204 204 186 190 186 164 153 137 125 129 106 100 84
312 315 339 263 256 278 280 284 39 325 278 333 11 340 322 355 354 323 238 18 32 347 8 359 173 175 178 180 177 176 194 201 214 222 214 206 210 235 199 184 177 162 141 131 129 114 109 104 94
293 324 255 221 305 311 303 309 132 265 340 308 294 206 265 340 356 330 1 46 9 7 340 335 351 9 169 182 172 167 172 191 223 229 230 217 214 182 281 169 164 148 129 119 117 112 116 109 101
317 322 310 360 259 304 314 308 328 320 7 339 332 330 326 2 13 295 310 336 341 350 343 353 342 290 312 322 179 166 173 181 207 225 236 243 194 145 131 342 156 131 121 126 120 114 115 107 102
221 321 273 243 277 273 282 283 290 317 328 341 326 328 339 331 299 277 296 204 277 286 337 334 338 341 278 266 266 192 184 166 187 219 220 236 212 174 180 165 164 136 119 123 116 122 120 117 109